FW0324 Weather Reports


time (UTC)temp
C
wind
direction
speed
KPH
gust
KPH
rain 1hr
cm
rain 24hr
cm
rain mn
cm
humidity
%
barometer
mb
20260505063048 14 141 0.0 0.0 0.00 0.00 0.00 89 1012.8
20260505062543 14 141 0.0 0.0 0.00 0.00 0.00 89 1012.9
20260505062038 14 140 0.0 0.0 0.00 0.00 0.00 89 1013.1
20260505061541 14 141 0.0 0.0 0.00 0.00 0.00 89 1013.1
20260505061042 14 140 0.0 0.0 0.00 0.00 0.00 89 1013.3
20260505060537 14 140 0.0 0.0 0.00 0.00 0.00 89 1013.3
20260505060036 14 140 0.0 0.0 0.00 0.00 0.00 88 1013.4
20260505055537 14 141 0.0 0.0 0.00 0.00 0.00 88 1013.6
20260505055035 14 140 0.0 0.0 0.00 0.00 0.00 88 1013.5
20260505054538 14 140 0.0 0.0 0.00 0.00 0.00 88 1013.4
20260505054037 14 141 0.0 0.0 0.00 0.00 0.00 88 1013.5
20260505053535 14 141 0.0 0.0 0.00 0.00 0.00 88 1013.5
20260505053033 14 141 0.0 0.0 0.00 0.00 0.00 88 1013.4
20260505052534 14 141 0.0 0.0 0.00 0.00 0.00 88 1013.4
20260505052031 15 141 0.0 0.0 0.00 0.00 0.00 88 1013.4
20260505051531 15 142 0.0 0.0 0.00 0.00 0.00 87 1013.3
20260505051031 15 142 0.0 0.0 0.00 0.00 0.00 87 1013.2
20260505050527 15 142 0.0 0.0 0.00 0.00 0.00 87 1013.2
20260505041537 15 142 0.0 0.0 0.00 0.00 0.00 85 1013.5
20260505041026 15 142 0.0 0.0 0.00 0.00 0.00 85 1013.5
20260505040526 15 142 0.0 0.0 0.00 0.00 0.00 85 1013.5
20260505040037 15 142 0.0 0.0 0.00 0.00 0.00 84 1013.7
20260505035525 16 142 0.0 0.0 0.00 0.00 0.00 84 1013.7
20260505035025 16 142 0.0 0.0 0.00 0.00 0.00 83 1013.7
20260505034527 16 142 0.0 0.0 0.00 0.00 0.00 82 1013.7
20260505034025 16 142 0.0 0.0 0.00 0.00 0.00 82 1013.7
20260505033525 16 142 0.0 0.0 0.00 0.00 0.00 82 1013.7
20260505033025 16 142 0.0 0.0 0.00 0.00 0.00 82 1013.7
20260505032525 16 142 0.0 0.0 0.00 0.00 0.00 81 1013.7
20260505032025 16 142 0.0 0.0 0.00 0.00 0.00 81 1013.7
20260505031535 16 142 0.0 0.0 0.00 0.00 0.00 81 1013.7
20260505031023 16 142 0.0 0.0 0.00 0.00 0.00 81 1013.7
20260505030523 16 145 0.0 0.0 0.00 0.00 0.00 80 1013.7
20260505030023 17 145 0.0 0.0 0.00 0.00 0.00 78 1013.6
20260505025524 17 145 0.0 0.0 0.00 0.00 0.00 78 1013.6
20260505025022 17 145 0.0 0.0 0.00 0.00 0.00 77 1013.6
20260505024522 17 145 0.0 0.0 0.00 0.00 0.00 76 1013.7
20260505024023 17 145 0.0 0.0 0.00 0.00 0.00 75 1013.7
20260505023523 17 145 0.0 0.0 0.00 0.00 0.00 74 1013.6
20260505023022 17 145 0.0 0.0 0.00 0.00 0.00 75 1013.7
20260505022523 17 145 0.0 0.0 0.00 0.00 0.00 74 1013.8
20260505022022 18 145 0.0 0.0 0.00 0.00 0.00 73 1013.7
20260505021522 18 144 0.0 0.0 0.00 0.00 0.00 72 1013.7
20260505021021 18 144 0.0 0.0 0.00 0.00 0.00 72 1013.7
20260505020521 18 144 0.0 0.0 0.00 0.00 0.00 71 1013.7
20260505020022 18 144 0.0 0.0 0.00 0.00 0.00 70 1013.6
20260505015522 18 144 0.0 0.0 0.00 0.00 0.00 70 1013.5
20260505015022 18 144 0.0 0.0 0.00 0.00 0.00 70 1013.5
20260505014531 19 144 0.0 0.0 0.00 0.00 0.00 69 1013.5
20260505014021 19 144 0.0 0.0 0.00 0.00 0.00 69 1013.5
20260505013520 19 144 0.0 0.0 0.00 0.00 0.00 68 1013.4
20260505013021 20 144 0.0 0.0 0.00 0.00 0.00 68 1013.4
20260505012520 20 144 0.0 0.0 0.00 0.00 0.00 68 1013.3
20260505012021 20 144 0.0 0.0 0.00 0.00 0.00 67 1013.1
20260505011518 20 144 0.0 0.0 0.00 0.00 0.00 65 1013.2
20260505011020 20 144 0.0 3.2 0.00 0.00 0.00 64 1013.3
20260505010519 20 144 0.0 3.2 0.00 0.00 0.00 64 1013.3
20260505010023 20 130 1.6 3.2 0.00 0.00 0.00 63 1013.2
20260505005518 20 112 0.0 3.2 0.00 0.00 0.00 62 1013.4
20260505005019 21 112 1.6 8.0 0.00 0.00 0.00 62 1013.4
20260505004518 21 110 1.6 8.0 0.00 0.00 0.00 61 1013.3
20260505004016 21 135 1.6 6.4 0.00 0.00 0.00 60 1013.4
20260505003517 21 138 3.2 6.4 0.00 0.00 0.00 60 1013.7
20260505003017 21 134 3.2 9.7 0.00 0.00 0.00 59 1013.7
20260505002516 22 122 4.8 9.7 0.00 0.00 0.00 58 1013.4
20260505002015 22 136 3.2 11.3 0.00 0.00 0.00 58 1013.6
20260505001515 22 165 4.8 11.3 0.00 0.00 0.00 57 1013.6
20260505001013 22 127 4.8 8.0 0.00 0.00 0.00 56 1013.7
20260505000519 22 107 3.2 8.0 0.00 0.00 0.00 56 1013.7
20260505000013 22 151 4.8 14.5 0.00 0.00 0.00 55 1013.8
20260504235514 22 150 3.2 16.1 0.00 0.00 0.00 55 1013.9
20260504235018 22 125 4.8 16.1 0.00 0.00 0.00 55 1013.7
20260504234513 23 113 3.2 12.9 0.00 0.00 0.00 54 1013.6
20260504234012 23 138 3.2 12.9 0.00 0.00 0.00 55 1013.7
20260504233516 23 128 3.2 11.3 0.00 0.00 0.00 55 1013.8
20260504233011 23 197 4.8 12.9 0.00 0.00 0.00 54 1013.7
20260504232513 23 190 3.2 12.9 0.00 0.00 0.00 53 1013.8
20260504232012 23 215 3.2 12.9 0.00 0.00 0.00 52 1013.9
20260504231509 23 155 3.2 12.9 0.00 0.00 0.00 52 1013.9
20260504231009 23 192 6.4 12.9 0.00 0.00 0.00 53 1014.0
20260504230509 23 173 6.4 14.5 0.00 0.00 0.00 50 1013.9
20260504230011 23 209 6.4 14.5 0.00 0.00 0.00 49 1013.9
20260504225509 23 179 4.8 17.7 0.00 0.00 0.00 54 1014.0
20260504225009 24 195 9.7 17.7 0.00 0.00 0.00 49 1014.0
20260504224508 24 176 9.7 16.1 0.00 0.00 0.00 47 1014.1
20260504224007 24 167 8.0 16.1 0.00 0.00 0.00 48 1013.9
20260504223507 24 159 4.8 14.5 0.00 0.00 0.00 49 1014.0
20260504223008 24 183 4.8 12.9 0.00 0.00 0.00 49 1014.0
20260504222506 24 178 6.4 11.3 0.00 0.00 0.00 46 1014.1
20260504222005 24 186 4.8 12.9 0.00 0.00 0.00 45 1014.1
20260504221504 24 131 4.8 16.1 0.00 0.00 0.00 45 1013.9
20260504221004 24 123 8.0 22.5 0.00 0.00 0.00 44 1014.1
20260504220503 24 197 6.4 17.7 0.00 0.00 0.00 43 1014.2
20260504220010 24 176 9.7 17.7 0.00 0.00 0.00 43 1014.3
20260504215503 25 159 9.7 14.5 0.00 0.00 0.00 43 1014.3
20260504215002 25 138 6.4 14.5 0.00 0.00 0.00 45 1014.4
20260504214505 25 152 4.8 22.5 0.00 0.00 0.00 45 1014.4
20260504214002 25 191 11.3 22.5 0.00 0.00 0.00 41 1014.4
20260504213501 25 140 3.2 16.1 0.00 0.00 0.00 47 1014.4
20260504213106 25 121 9.7 20.9 0.00 0.00 0.00 43 1014.3
20260504213003 25 144 8.0 20.9 0.00 0.00 0.00 42 1014.3
20260504212503 25 198 8.0 14.5 0.00 0.00 0.00 44 1014.4
20260504212100 25 157 4.8 16.1 0.00 0.00 0.00 47 1014.2
20260504211601 25 134 8.0 16.1 0.00 0.00 0.00 40 1014.3
20260504211058 25 182 3.2 16.1 0.00 0.00 0.00 40 1014.4
20260504210601 25 178 4.8 16.1 0.00 0.00 0.00 44 1014.4
20260504210101 25 207 8.0 19.3 0.00 0.00 0.00 40 1014.5
20260504205601 25 196 11.3 20.9 0.00 0.00 0.00 39 1014.5
20260504205056 25 169 11.3 20.9 0.00 0.00 0.00 40 1014.6
20260504204556 25 181 8.0 14.5 0.00 0.00 0.00 42 1014.6
20260504204054 25 198 6.4 16.1 0.00 0.00 0.00 42 1014.8
20260504203555 25 113 3.2 16.1 0.00 0.00 0.00 42 1014.7
20260504203107 25 178 6.4 17.7 0.00 0.00 0.00 43 1014.8
20260504202552 25 177 8.0 19.3 0.00 0.00 0.00 39 1015.0
20260504202052 25 153 8.0 19.3 0.00 0.00 0.00 43 1015.1
20260504201555 25 151 4.8 17.7 0.00 0.00 0.00 44 1015.1
20260504201050 25 184 11.3 17.7 0.00 0.00 0.00 40 1015.3
20260504200550 25 189 8.0 19.3 0.00 0.00 0.00 43 1015.3
20260504200051 25 134 4.8 17.7 0.00 0.00 0.00 44 1015.4
20260504195547 25 236 4.8 17.7 0.00 0.00 0.00 44 1015.4
20260504195047 25 135 9.7 17.7 0.00 0.00 0.00 41 1015.6
20260504194546 25 157 11.3 16.1 0.00 0.00 0.00 43 1015.7
20260504194047 25 153 6.4 16.1 0.00 0.00 0.00 44 1015.7
20260504193547 25 132 8.0 17.7 0.00 0.00 0.00 41 1015.7
20260504193046 25 100 8.0 17.7 0.00 0.00 0.00 43 1015.8
20260504192545 25 126 8.0 17.7 0.00 0.00 0.00 42 1015.8
20260504192044 25 279 1.6 17.7 0.00 0.00 0.00 42 1015.7
20260504191548 25 140 8.0 16.1 0.00 0.00 0.00 40 1016.0
20260504191043 25 111 6.4 16.1 0.00 0.00 0.00 46 1016.0
20260504190543 25 146 6.4 22.5 0.00 0.00 0.00 41 1016.0
20260504190046 25 219 9.7 22.5 0.00 0.00 0.00 42 1016.2
20260504185542 25 182 11.3 22.5 0.00 0.00 0.00 42 1016.2
20260504185040 25 167 9.7 19.3 0.00 0.00 0.00 43 1016.1
20260504184540 25 194 6.4 19.3 0.00 0.00 0.00 46 1016.2
20260504184039 25 194 6.4 19.3 0.00 0.00 0.00 42 1016.3
20260504183539 25 140 8.0 17.7 0.00 0.00 0.00 47 1016.4
20260504183038 25 151 9.7 17.7 0.00 0.00 0.00 43 1016.5
20260504182539 25 195 8.0 22.5 0.00 0.00 0.00 41 1016.4
20260504182035 25 136 8.0 22.5 0.00 0.00 0.00 41 1016.8
20260504181542 25 121 8.0 20.9 0.00 0.00 0.00 41 1016.9
20260504181034 25 147 9.7 20.9 0.00 0.00 0.00 44 1016.9
20260504180533 25 229 9.7 16.1 0.00 0.00 0.00 46 1016.9
20260504180033 25 183 4.8 14.5 0.00 0.00 0.00 48 1017.1
20260504175532 24 267 4.8 19.3 0.00 0.00 0.00 44 1017.0
20260504175032 25 261 8.0 19.3 0.00 0.00 0.00 43 1017.1
20260504174531 25 208 8.0 16.1 0.00 0.00 0.00 47 1017.0
20260504174031 24 126 6.4 14.5 0.00 0.00 0.00 47 1016.9
20260504173530 24 178 4.8 16.1 0.00 0.00 0.00 47 1017.0
20260504173030 24 181 6.4 16.1 0.00 0.00 0.00 47 1017.1
20260504172530 25 194 8.0 17.7 0.00 0.00 0.00 47 1017.2
20260504172031 24 135 9.7 19.3 0.00 0.00 0.00 46 1017.2
20260504171527 24 155 11.3 19.3 0.00 0.00 0.00 49 1017.1
20260504171027 24 167 4.8 16.1 0.00 0.00 0.00 47 1017.0
20260504170526 24 185 8.0 22.5 0.00 0.00 0.00 47 1017.1
20260504151058 23 151 6.4 11.3 0.00 0.00 0.00 48 1017.7
20260504150557 22 142 3.2 11.3 0.00 0.00 0.00 47 1017.6
20260504150106 22 113 4.8 11.3 0.00 0.00 0.00 49 1017.6
20260504141040 21 190 4.8 11.3 0.00 0.00 0.00 68 1017.7
20260504140539 20 244 4.8 9.7 0.00 0.00 0.00 69 1017.8
20260504130523 12 228 0.0 0.0 0.00 0.00 0.00 93 1017.6
20260504110511 10 227 0.0 0.0 0.00 0.00 0.00 91 1017.1
20260504100505 10 227 0.0 0.0 0.00 0.00 0.00 91 1017.1
20260504090107 11 227 0.0 0.0 0.00 0.00 0.00 90 1017.3
20260504081556 11 227 0.0 0.0 0.00 0.00 0.00 90 1017.5
20260504081055 11 226 0.0 0.0 0.00 0.00 0.00 90 1017.4
20260504080554 11 226 0.0 0.0 0.00 0.00 0.00 90 1017.5